STARLINK-11127, 60119

Orbit data source: Space-Track

STARLINK-11127, 60119 is a payload satellite owned by SpaceX/Seattle (US) in LEO that was launched on Mon, 24 Jun 2024 UTC via an FALCON 9 launch vehicle from the Air Force Western Test Range (AFWTR). Payload-class satellites include a variety of spacecraft equipped with specific instruments for various scientific and technological missions. These include communications satellites like Starlink; space stations such as the ISS; scientific satellites like the Hubble; Earth observation satellites from companies like Planet Labs, Umbra, and HawkEye 360; GPS; miniature CubeSats for education and research; and military/defense satellites.

Loading next visibility...
Identifier
60119, 2024-118G
Orbit
LEO
Last TLE update
4 hours ago
Origin
Manufacturer
SpaceX/Seattle
Mission
Operational Commercial Communications
Bus & Motor
STARLINK V2M, Unknown motor
Mass
730 kg wet, ~700 kg dry
Launch date (UTC)
2024-06-24 (1 year ago)
Launch vehicle
FALCON 9
Launch site
Air Force Western Test Range (AFWTR)
Object type
Payload
Rocket body
Debris
Shape & HBR
Box + 2 Pan, 29 m
Radar Cross Section
33.884 m², Large (>1 m²)

Expand to show TLE details & history

TLE from 4 hours ago
0 STARLINK-11127
1 60119U 24118G   25190.15442171 -.00008074  00000-0 -61795-4 0  9998
2 60119  53.1592 341.7805 0000091 124.5892 235.5134 15.69737176 60622
Epoch: 2025-07-09T03:42Z
TLE epoch observation values (Epoch: 2025-07-09T03:42:22.035Z)
Latitude
-0.00008°
Longitude
-1.1505°
Altitude
360.599 km
Speed
7.694 km/s
True Right ascension
22h 47m 07s
True Declination
0° 00' 00"
Sunlit
Object was in full shadow at epoch
Visualization orbit readout
Latitude
-24.9005°
Longitude
-22.29716°
Altitude
366.955 km
Speed
7.689 km/s
Apparent Right ascension
00h 16m 47s
Apparent Declination
-74° 14' 22"
Sunlit
Object is in full shadow
Visualization observer readout
Local Sidereal Time
20:18:59
Azimuth
164.202° S
Elevation
-30.774°
Doppler factor
1
Orbital elements
Apogee altitude
359.971 km
Perigee altitude
359.848 km
Semi-major axis
6,738.047 km
Eccentricity
0.00001
Inclination
53.1592°
RAAN
341.7805°
Arg. of periapsis
124.5892°
True anomaly
Unknown
Mean anomaly
235.5134°
Eccentric anomaly
Unknown
Mean motion
3.92412 °/min
Orbital period
91.74 mins
BSTAR
-0.000061795
Loading maneuver chart data...
Loading SW <> Apogee altitude chart data...
Loading historical data...
Loading historical data...
Loading historical data...
Loading historical data...
Loading historical data...
Loading historical data...
Loading historical data...

STARLINK-11127 Visibility forecast

Observer location: undefined°, undefined°

Span
Click to sort rows by Start time (UTC) header in descending order
Start Az.
Max El. time (UTC)
Max El. Az.
Max El.
End time (UTC)
End Az.
5 mins2025-07-09 13:03:22.285Z230.996° WSW2025-07-09 13:06:22.285Z36.064° NE43.104°2025-07-09 13:08:22.285Z48.489° ENE
4 mins2025-07-09 19:29:22.285Z327.454° NNW2025-07-09 19:30:22.285Z358.2° N37.245°2025-07-09 19:33:22.285Z116.584° SE
|